| time (UTC) | temp F | wind direction | speed knots | gust knots | rain 1hr in | rain 24hr in | rain mn in | humidity % | barometer mb |
| 20260509180350 | 63 | 342 | 4.3 | 8.7 | 0.00 | 0.00 | 0.00 | 74 | 1020.0 |
| 20260509174833 | 62 | 325 | 3.5 | 6.1 | 0.00 | 0.00 | 0.00 | 77 | 1020.1 |
| 20260509173338 | 60 | 308 | 4.3 | 8.7 | 0.00 | 0.00 | 0.00 | 79 | 1020.1 |
| 20260509171820 | 59 | 327 | 4.3 | 8.7 | 0.00 | 0.00 | 0.00 | 79 | 1020.2 |
| 20260509170344 | 58 | 348 | 5.2 | 9.6 | 0.00 | 0.00 | 0.00 | 81 | 1020.3 |
| 20260509164825 | 57 | 329 | 5.2 | 8.7 | 0.00 | 0.00 | 0.00 | 82 | 1020.5 |
| 20260509163336 | 57 | 323 | 5.2 | 9.6 | 0.00 | 0.00 | 0.00 | 84 | 1020.6 |
| 20260509161824 | 56 | 336 | 2.6 | 7.0 | 0.00 | 0.00 | 0.00 | 85 | 1020.7 |
| 20260509160328 | 55 | 321 | 1.7 | 7.8 | 0.00 | 0.00 | 0.00 | 85 | 1021.0 |
| 20260509154837 | 54 | 341 | 5.2 | 7.8 | 0.00 | 0.00 | 0.00 | 87 | 1021.0 |
| 20260509153325 | 54 | 323 | 2.6 | 7.8 | 0.00 | 0.00 | 0.00 | 87 | 1021.1 |
| 20260509151834 | 53 | 326 | 4.3 | 7.0 | 0.00 | 0.00 | 0.00 | 89 | 1021.1 |
| 20260509150338 | 52 | 320 | 3.5 | 6.1 | 0.00 | 0.00 | 0.00 | 90 | 1021.5 |
| 20260509144827 | 52 | 333 | 3.5 | 7.0 | 0.00 | 0.00 | 0.00 | 91 | 1021.5 |
| 20260509143335 | 51 | 344 | 4.3 | 7.8 | 0.00 | 0.00 | 0.00 | 91 | 1021.5 |
| 20260509141823 | 51 | 340 | 3.5 | 6.1 | 0.00 | 0.00 | 0.00 | 93 | 1021.4 |
| 20260509140328 | 50 | 327 | 2.6 | 4.3 | 0.00 | 0.00 | 0.00 | 94 | 1021.3 |
| 20260509134835 | 49 | 327 | 1.7 | 4.3 | 0.00 | 0.00 | 0.00 | 94 | 1021.3 |
| 20260509133340 | 49 | 324 | 1.7 | 5.2 | 0.00 | 0.00 | 0.00 | 94 | 1021.1 |
| 20260509131828 | 48 | 315 | 2.6 | 5.2 | 0.00 | 0.00 | 0.00 | 93 | 1021.2 |
| 20260509130316 | 48 | 309 | 0.9 | 4.3 | 0.00 | 0.00 | 0.00 | 91 | 1021.2 |
| 20260509124823 | 48 | 324 | 2.6 | 3.5 | 0.00 | 0.00 | 0.00 | 91 | 1021.3 |
| 20260509123333 | 49 | 329 | 0.9 | 1.7 | 0.00 | 0.00 | 0.00 | 91 | 1021.3 |
| 20260509121819 | 49 | 327 | 0.9 | 3.5 | 0.00 | 0.00 | 0.00 | 91 | 1021.5 |
| 20260509120323 | 50 | 314 | 2.6 | 4.3 | 0.00 | 0.00 | 0.00 | 91 | 1021.5 |
| 20260509114831 | 50 | 317 | 1.7 | 5.2 | 0.00 | 0.00 | 0.00 | 91 | 1021.5 |
| 20260509113343 | 50 | 329 | 2.6 | 5.2 | 0.00 | 0.00 | 0.00 | 90 | 1021.6 |
| 20260509111827 | 50 | 313 | 3.5 | 6.1 | 0.00 | 0.00 | 0.00 | 91 | 1021.5 |
| 20260509110334 | 50 | 314 | 3.5 | 4.3 | 0.00 | 0.00 | 0.00 | 90 | 1021.6 |
| 20260509104858 | 50 | 323 | 2.6 | 4.3 | 0.00 | 0.00 | 0.00 | 89 | 1021.8 |
| 20260509103323 | 51 | 319 | 1.7 | 4.3 | 0.00 | 0.00 | 0.00 | 88 | 1022.0 |
| 20260509101829 | 51 | 317 | 2.6 | 4.3 | 0.00 | 0.00 | 0.00 | 87 | 1021.9 |
| 20260509100336 | 52 | 314 | 2.6 | 5.2 | 0.00 | 0.00 | 0.00 | 87 | 1022.0 |
| 20260509094823 | 52 | 317 | 2.6 | 5.2 | 0.00 | 0.00 | 0.00 | 86 | 1022.0 |
| 20260509093324 | 53 | 323 | 3.5 | 7.0 | 0.00 | 0.00 | 0.00 | 85 | 1022.2 |
| 20260509091831 | 53 | 327 | 2.6 | 6.1 | 0.00 | 0.00 | 0.00 | 85 | 1022.1 |
| 20260509090321 | 54 | 309 | 3.5 | 7.0 | 0.00 | 0.00 | 0.00 | 85 | 1022.2 |
| 20260509084829 | 54 | 315 | 3.5 | 7.0 | 0.00 | 0.00 | 0.00 | 84 | 1022.3 |
| 20260509083337 | 54 | 317 | 4.3 | 7.8 | 0.00 | 0.00 | 0.00 | 83 | 1022.4 |
| 20260509081821 | 55 | 319 | 4.3 | 8.7 | 0.00 | 0.00 | 0.00 | 83 | 1022.6 |
| 20260509080324 | 55 | 309 | 4.3 | 7.0 | 0.00 | 0.00 | 0.00 | 82 | 1022.5 |
| 20260509074834 | 55 | 314 | 4.3 | 12.2 | 0.00 | 0.00 | 0.00 | 82 | 1022.6 |
| 20260509073341 | 55 | 311 | 2.6 | 7.0 | 0.00 | 0.00 | 0.00 | 82 | 1022.6 |
| 20260509071831 | 55 | 304 | 0.0 | 2.6 | 0.00 | 0.00 | 0.00 | 81 | 1022.5 |
| 20260509070340 | 55 | 300 | 0.9 | 2.6 | 0.00 | 0.00 | 0.00 | 80 | 1022.6 |
| 20260509064823 | 55 | 248 | 0.0 | 1.7 | 0.00 | 0.00 | 0.00 | 81 | 1022.5 |
| 20260509063333 | 55 | 231 | 1.7 | 6.1 | 0.00 | 0.00 | 0.00 | 80 | 1022.5 |
| 20260509061825 | 55 | 227 | 2.6 | 7.0 | 0.00 | 0.00 | 0.00 | 80 | 1022.5 |
| 20260509060336 | 56 | 219 | 2.6 | 6.1 | 0.00 | 0.00 | 0.00 | 80 | 1022.5 |
| 20260509054827 | 56 | 235 | 5.2 | 10.4 | 0.00 | 0.00 | 0.00 | 79 | 1022.6 |
| 20260509053315 | 57 | 233 | 4.3 | 11.3 | 0.00 | 0.00 | 0.00 | 78 | 1022.6 |
| 20260509051852 | 57 | 240 | 3.5 | 8.7 | 0.00 | 0.00 | 0.00 | 77 | 1022.5 |
| 20260509050333 | 58 | 240 | 3.5 | 9.6 | 0.00 | 0.00 | 0.00 | 77 | 1022.4 |
| 20260509044824 | 58 | 243 | 4.3 | 7.8 | 0.00 | 0.00 | 0.00 | 76 | 1022.3 |
| 20260509043334 | 58 | 237 | 4.3 | 10.4 | 0.00 | 0.00 | 0.00 | 75 | 1022.0 |
| 20260509041821 | 59 | 248 | 3.5 | 10.4 | 0.00 | 0.00 | 0.00 | 75 | 1021.9 |
| 20260509040331 | 60 | 246 | 5.2 | 13.9 | 0.00 | 0.00 | 0.00 | 74 | 1021.9 |
| 20260509034820 | 60 | 225 | 4.3 | 9.6 | 0.00 | 0.00 | 0.00 | 73 | 1021.8 |
| 20260509033335 | 61 | 234 | 5.2 | 9.6 | 0.00 | 0.00 | 0.00 | 72 | 1021.7 |
| 20260509031845 | 61 | 235 | 3.5 | 9.6 | 0.00 | 0.00 | 0.00 | 72 | 1021.7 |
| 20260509030329 | 62 | 250 | 5.2 | 9.6 | 0.00 | 0.00 | 0.00 | 70 | 1021.7 |
| 20260509024824 | 63 | 238 | 3.5 | 6.1 | 0.00 | 0.00 | 0.00 | 68 | 1021.6 |
| 20260509023332 | 65 | 221 | 1.7 | 4.3 | 0.00 | 0.00 | 0.00 | 65 | 1021.5 |
| 20260509021839 | 67 | 246 | 0.9 | 6.1 | 0.00 | 0.00 | 0.00 | 62 | 1021.4 |
| 20260509020328 | 68 | 237 | 1.7 | 5.2 | 0.00 | 0.00 | 0.00 | 61 | 1021.4 |
| 20260509014835 | 68 | 225 | 2.6 | 6.1 | 0.00 | 0.00 | 0.00 | 59 | 1021.4 |
| 20260509013322 | 69 | 242 | 2.6 | 7.0 | 0.00 | 0.00 | 0.00 | 57 | 1021.7 |
| 20260509011828 | 70 | 245 | 2.6 | 7.8 | 0.00 | 0.00 | 0.00 | 59 | 1021.7 |
| 20260509010338 | 70 | 286 | 1.7 | 4.3 | 0.00 | 0.00 | 0.00 | 59 | 1021.9 |
| 20260509004829 | 70 | 254 | 0.9 | 6.1 | 0.00 | 0.00 | 0.00 | 56 | 1021.9 |
| 20260509003337 | 70 | 190 | 1.7 | 7.8 | 0.00 | 0.00 | 0.00 | 56 | 1022.0 |
| 20260509001824 | 70 | 277 | 1.7 | 4.3 | 0.00 | 0.00 | 0.00 | 56 | 1021.9 |
| 20260509000329 | 70 | 241 | 1.7 | 7.0 | 0.00 | 0.00 | 0.00 | 58 | 1022.0 |
| 20260508234816 | 70 | 240 | 1.7 | 7.0 | 0.00 | 0.00 | 0.00 | 57 | 1022.0 |
| 20260508233344 | 70 | 226 | 5.2 | 7.8 | 0.00 | 0.00 | 0.00 | 56 | 1022.2 |
| 20260508231827 | 69 | 293 | 1.7 | 6.1 | 0.00 | 0.00 | 0.00 | 57 | 1022.2 |
| 20260508230335 | 69 | 192 | 2.6 | 7.0 | 0.00 | 0.00 | 0.00 | 56 | 1022.2 |
| 20260508224826 | 69 | 198 | 0.9 | 6.1 | 0.00 | 0.00 | 0.00 | 57 | 1022.2 |
| 20260508223335 | 69 | 7 | 2.6 | 6.1 | 0.00 | 0.00 | 0.00 | 56 | 1022.2 |
| 20260508221824 | 68 | 256 | 2.6 | 6.1 | 0.00 | 0.00 | 0.00 | 58 | 1022.2 |
| 20260508220329 | 67 | 217 | 5.2 | 8.7 | 0.00 | 0.00 | 0.00 | 59 | 1022.4 |
| 20260508214837 | 67 | 174 | 1.7 | 7.0 | 0.00 | 0.00 | 0.00 | 61 | 1022.4 |
| 20260508213326 | 66 | 148 | 1.7 | 7.8 | 0.00 | 0.00 | 0.00 | 62 | 1022.3 |
| 20260508211837 | 66 | 190 | 5.2 | 7.8 | 0.00 | 0.00 | 0.00 | 59 | 1022.5 |
| 20260508210323 | 65 | 90 | 2.6 | 9.6 | 0.00 | 0.00 | 0.00 | 61 | 1022.4 |
| 20260508204830 | 63 | 171 | 1.7 | 7.0 | 0.00 | 0.00 | 0.00 | 64 | 1022.3 |
| 20260508203337 | 63 | 167 | 3.5 | 7.0 | 0.00 | 0.00 | 0.00 | 66 | 1022.4 |
| 20260508201823 | 62 | 178 | 0.9 | 4.3 | 0.00 | 0.00 | 0.00 | 63 | 1022.4 |
| 20260508200326 | 61 | 130 | 4.3 | 7.8 | 0.00 | 0.00 | 0.00 | 68 | 1022.5 |
| 20260508194834 | 60 | 202 | 3.5 | 10.4 | 0.00 | 0.00 | 0.00 | 68 | 1022.5 |
| 20260508193320 | 60 | 127 | 1.7 | 7.8 | 0.00 | 0.00 | 0.00 | 69 | 1022.5 |
| 20260508191845 | 58 | 224 | 0.9 | 8.7 | 0.00 | 0.00 | 0.00 | 69 | 1022.6 |
| 20260508190348 | 58 | 221 | 0.9 | 4.3 | 0.00 | 0.00 | 0.00 | 69 | 1022.7 |
| 20260508184837 | 57 | 205 | 2.6 | 7.0 | 0.00 | 0.00 | 0.00 | 72 | 1022.7 |
| 20260508183325 | 57 | 193 | 0.9 | 8.7 | 0.00 | 0.00 | 0.00 | 68 | 1022.7 |
| 20260508181851 | 56 | 135 | 2.6 | 7.0 | 0.00 | 0.00 | 0.00 | 74 | 1022.6 |